Location: Coulad�re
(43.2015°N, 1.0903°E)
Time: 13:29:24
(UTC+00:00)

Daily predictions for brighter satellites

Satellite Brightness Start Highest point End
(mag) Time Altitude Azimuth Time Altitude Azimuth Time Altitude Azimuth
CENTAUR R/B 4.3 19:36:58 10° NW 19:44:49 46° WSW 19:53:09 10° S
ATLAS 3B R/B 3.6 19:40:40 10° NNW 19:47:19 41° NE 19:54:12 10° ESE
Cosmos 1408 3.9 19:46:20 10° SSW 19:49:50 45° W 19:53:20 10° N
RESURS DK-1 2.8 19:47:16 10° S 19:51:10 41° ESE 19:55:06 10° NE
Cosmos 1633 3.7 19:48:47 10° SE 19:51:44 24° E 19:54:43 10° NE
OBJECT-B 1.4 19:49:58 10° S 19:53:07 57° W 19:56:18 10° NNW
IRS-1A Rocket 4.3 19:49:45 10° SSE 19:55:13 65° ENE 20:00:40 10° N
CZ-4 R/B 4.4 19:53:21 10° SW 19:55:39 14° W 19:57:58 10° WNW
SL-19 R/B 4.4 19:53:18 10° S 19:56:44 71° WSW 20:00:44 10° NNW
Cosmos 1825 2.5 19:54:13 10° SSW 19:57:56 70° W 20:01:42 10° N
USA 276 4.2 19:55:30 10° NW 19:58:06 23° N 20:00:43 10° ENE
Cosmos 2369 3.8 19:52:43 10° NNW 19:58:21 64° ENE 20:03:57 10° SE
Cosmos 1980 Rocket 2.6 19:54:56 10° NNW 20:00:24 49° ENE 20:05:51 10° SE
BREEZE-M DEB (TANK) 3.1 19:57:57 10° SSW 20:00:51 46° SE 20:08:55 10° ENE
MOS 1 4.3 19:55:46 10° SSE 20:01:24 75° ENE 20:07:04 10° N
Cosmos 1437 2.4 19:59:30 10° NNW 20:02:16 77° W 20:05:00 10° S
COSMOS 2406 3.6 19:58:15 10° SSW 20:03:54 73° WNW 20:09:39 10° NNE
Cosmos 1242 Rocket 3.0 20:01:28 10° NNW 20:05:02 63° W 20:08:31 10° S
SPOT 3 Rocket 4.1 20:04:43 10° SE 20:09:38 43° ENE 20:14:34 10° N
Cosmos 2322 Rocket 4.1 20:06:25 10° N 20:09:49 16° NE 20:13:10 10° E
Gbstr 26 Del rocket 4.4 20:09:56 10° NW 20:13:08 26° NNE 20:16:28 10° ENE
Cosmos 2279 Rocket 4.3 20:17:17 10° NNW 20:23:27 71° W 20:29:35 10° S
Cosmos 1076 Rocket 3.5 20:21:19 10° S 20:25:35 64° E 20:29:55 10° NNE
ISS -2.5 20:22:34 10° NW 20:25:43 35° NNE 20:28:39 11° E
ERS-2 2.2 20:24:50 10° N 20:28:30 79° WNW 20:32:07 10° SSW
Landsat 7 3.8 20:27:40 10° SSE 20:32:23 78° ENE 20:37:10 10° N
Resurs 1-3 4.4 20:29:24 10° S 20:33:39 50° W 20:37:56 10° NNW
Cosmos 1782 4.5 20:31:33 10° NNE 20:34:31 19° ENE 20:36:11 15° ESE
Cosmos 1538 Rocket 3.9 20:30:42 10° S 20:35:52 67° ESE 20:41:01 10° NNE
Cosmos 1842 Rocket 4.0 20:31:54 10° NNW 20:36:21 63° W 20:40:46 10° S
SL-16 R/B 3.4 20:33:11 10° N 20:38:10 30° NE 20:42:00 15° ESE
ERBS 3.4 20:38:21 10° WNW 20:41:17 32° SW 20:43:15 17° S
Cosmos 2098 Rocket 2.2 20:38:45 10° S 20:41:43 84° W 20:45:11 10° N
Atlas Centaur 2 3.2 20:40:42 10° SSW 20:42:29 13° S 20:42:46 12° S
Cosmos 2026 Rocket 4.5 20:39:16 14° SSE 20:44:25 42° E 20:50:17 10° NNE
Cosmos 1271 Rocket 3.6 20:44:35 10° N 20:48:16 35° ENE 20:50:01 24° ESE
Nadezhda 4 Rocket 4.0 20:45:28 10° S 20:51:37 83° W 20:57:54 10° N
GP-B 3.7 20:48:10 10° NNE 20:52:21 40° E 20:54:29 24° SE
CZ-2C R/B 3.6 20:48:04 10° NNE 20:52:36 66° ESE 20:56:44 12° S
Meteor 2-8 Rocket 4.5 20:46:28 10° N 20:52:38 85° W 20:58:23 12° S
GRACE-FO 1 4.5 20:50:43 10° N 20:54:19 88° E 20:56:51 19° S
Ariane Rocket 4.2 20:49:47 10° SSW 20:54:32 40° W 20:59:19 10° NNW
GRACE-FO 2 4.5 20:51:09 10° N 20:54:47 89° ESE 20:57:18 19° S
Cosmos 1697 Rocket 4.2 20:51:20 10° NW 20:56:17 32° WSW 21:01:12 10° SSW
Cosmos 304 Rocket 3.9 20:57:49 10° NNW 21:02:35 62° ENE 21:05:03 27° SE
Okean 3 Rocket 4.4 21:04:44 28° SE 21:06:03 34° E 21:10:07 10° NNE
SPOT 1/Viking Rocket 3.6 21:02:28 18° S 21:06:22 79° WSW 21:11:38 10° NNW
Cosmos 2082 Rocket 3.5 21:04:07 10° SW 21:09:25 41° WNW 21:14:47 10° NNE
USA 245 3.9 21:06:56 21° SSE 21:10:35 85° WSW 21:15:02 10° NNW
Cosmos 2278 4.2 21:08:21 10° NNW 21:13:52 55° WSW 21:17:44 20° S
Cosmos 1428 Rocket 4.4 21:09:22 16° S 21:14:21 73° E 21:20:27 10° NNE
Resurs 01 Rocket 3.2 21:12:40 10° SSW 21:16:38 32° W 21:20:38 10° NNW
BREEZE-M DEB (TANK) 2.8 21:15:05 10° WNW 21:18:21 87° SSW 21:23:01 24° ESE
BREEZE-M DEB (TANK) 4.0 21:15:57 10° WNW 21:19:42 83° SSW 21:26:51 22° SE
Cosmos 923 Rocket 3.9 21:17:39 14° SSW 21:22:18 76° ESE 21:27:40 10° NNE
Cosmos 2360 Rocket 3.4 21:18:02 10° N 21:23:00 31° NE 21:25:36 21° E
Meteor 1-26 Rocket 4.3 21:21:19 10° N 21:27:18 87° W 21:30:34 28° S
Cosmos 1553 Rocket 4.2 21:22:00 10° N 21:27:56 52° ENE 21:30:30 32° SE
Cosmos 371 Rocket 4.3 21:24:12 10° NW 21:28:41 40° WSW 21:31:30 20° SSW
Cosmos 2333 Rocket 4.1 21:25:45 10° N 21:29:44 19° NE 21:32:47 13° E
CARTOSAT-1 3.8 21:29:56 32° S 21:31:50 66° W 21:36:08 10° NNW
Cosmos 2151 4.3 21:29:33 10° SW 21:33:31 38° WNW 21:37:31 10° N
USA 276 2.6 21:31:41 10° NW 21:34:47 50° NNE 21:35:05 47° NE
Cosmos 2056 Rocket 4.2 21:30:45 10° N 21:35:51 43° ENE 21:37:36 32° ESE
Cosmos 1812 3.1 21:33:17 10° N 21:37:02 46° ENE 21:37:16 45° E
ATLAS 3B R/B 3.3 21:31:20 10° NW 21:38:14 52° WSW 21:42:22 25° S
USA 267 3.4 21:32:56 10° ENE 21:39:14 48° SE 21:45:31 10° SSW
Cosmos 1933 4.4 21:37:23 10° NNW 21:41:12 40° W 21:42:58 25° SW
Cosmos 2084 3.7 21:42:47 46° E 21:42:47 46° E 21:46:13 10° NE
ERS-1 Rocket 3.0 21:40:38 37° S 21:42:40 80° WSW 21:47:42 10° NNW
ARIANE 5 R/B 2.9 21:41:11 35° SSW 21:42:54 62° WSW 21:47:20 10° NNW
SPOT 5 2.6 21:41:37 45° S 21:42:55 77° WSW 21:47:17 10° NNW
SL-27 R/B 3.9 21:44:33 26° ENE 21:44:33 26° ENE 21:46:36 10° NE
Cosmos 1980 Rocket 3.9 21:39:34 10° NW 21:44:03 25° WSW 21:47:54 13° SSW
Terra 1.7 21:43:31 46° SSE 21:44:53 78° ENE 21:49:40 10° N
Cosmos 1655 Rocket 4.5 21:43:53 35° SE 21:45:48 44° E 21:51:49 10° NNE
Cosmos 1515 Rocket 4.1 21:45:06 10° N 21:49:21 43° ENE 21:49:44 42° E
NOSS 2-1 (D) 4.4 21:54:21 26° NE 21:54:21 26° NE 21:55:56 10° NE
Spot 2 Rocket 4.4 21:52:07 25° SSW 21:54:38 43° W 21:59:32 10° NNW
Cosmos 2322 Rocket 2.1 21:49:04 10° NNW 21:54:45 85° ENE 21:56:28 47° SSE
Cosmos 1417 Rocket 4.5 21:48:45 10° N 21:55:05 71° E 21:57:19 42° SSE
Cosmos 2112 Rocket 4.0 21:54:10 28° SSW 21:57:00 84° WNW 22:02:19 10° NNE
Cosmos 1371 Rocket 4.0 21:51:56 10° NNW 21:57:19 72° ENE 21:58:42 50° SE
S3M 4.2 21:51:20 10° N 21:57:40 61° E 21:59:44 41° SE
Cosmos 1680 Rocket 3.7 21:54:17 21° SSW 21:57:50 72° WNW 22:03:07 10° NNE
Cosmos 1766 Rocket 4.0 21:57:59 36° SW 21:59:36 60° W 22:03:57 10° N
Gbstr 26 Del rocket 2.6 21:56:27 10° WNW 22:00:16 89° NNE 22:00:26 82° ESE
H-2A R/B 3.4 21:56:23 10° NNE 22:00:34 66° ESE 22:00:37 66° ESE
ISS -2.3 21:59:23 10° WNW 22:01:37 31° W 22:01:37 31° W
Cosmos 1862 3.1 22:02:44 85° SSE 22:02:51 88° E 22:06:51 10° N
COSMOS 2455 3.6 22:05:54 33° E 22:05:54 33° E 22:10:46 10° NE
Cosmos 1151 Rocket 3.7 22:02:40 10° NNW 22:06:53 49° W 22:07:51 41° SW
Cosmos 1328 Rocket 3.8 22:03:47 10° NNW 22:08:12 65° W 22:08:54 55° SW
Cosmos 1782 4.2 22:07:17 10° NNW 22:10:52 31° W 22:11:47 28° WSW
USA 234 4.2 22:07:28 15° E 22:12:36 43° NNE 22:18:43 10° NW
COBE Rocket 4.5 22:16:53 39° E 22:17:07 39° ENE 22:21:28 10° N
Cosmos 2219 Rocket 3.3 22:12:34 10° N 22:17:36 33° NE 22:19:12 28° E
SL-16 R/B 2.9 22:17:03 10° NW 22:22:25 44° WSW 22:23:52 37° SW
Cosmos 2237 4.2 22:19:01 10° NNW 22:24:43 74° WSW 22:25:50 57° S
Meteor 2-21 Rocket 4.5 22:23:08 41° SSW 22:25:29 77° W 22:31:42 10° N
Meteor 2-6 Rocket 4.4 22:21:18 10° NNW 22:26:39 60° W 22:27:52 48° SW
COSMOS 2428 3.8 22:22:55 10° N 22:28:03 33° NE 22:29:40 28° E
Cosmos 1805 Rocket 4.4 22:32:29 39° ENE 22:32:29 39° ENE 22:35:55 10° NNE
Cosmos 292 Rocket 3.6 22:30:02 10° NNW 22:34:49 83° ENE 22:34:52 83° E
Cosmos 1624 Rocket 4.2 22:32:59 10° NNW 22:38:05 56° WSW 22:38:38 53° SW
Cosmos 1500 Rocket 3.6 22:43:12 73° NW 22:43:12 73° NW 22:47:23 10° N
CZ-3B R/B 3.3 22:34:38 10° NW 22:43:10 42° NNE 22:44:24 32° ENE
ATLAS 5 CENTAUR R/B 3.6 22:42:09 10° NNW 22:47:03 32° NE 22:49:59 22° E
Meteor 1-27 Rocket 3.6 22:44:05 10° NNW 22:49:45 85° W 22:50:25 70° S
Cosmos 1420 Rocket 4.0 22:44:41 10° NNW 22:49:59 67° WSW 22:50:16 66° SW
NOSS 3-1 (C) 4.1 22:48:07 10° NW 22:55:43 80° NE 22:58:46 45° SE
Cosmos 972 Rocket 3.9 22:55:32 83° S 22:55:44 87° ESE 23:00:51 10° NNE
Cosmos 1743 Rocket 4.3 23:02:37 48° WNW 23:02:37 48° WNW 23:06:53 10° N
Cosmos 2285 Rocket 3.9 22:57:32 10° NNW 23:03:52 76° ENE 23:04:48 64° SE
Meteor 1-20 Rocket 4.1 23:05:25 74° ESE 23:05:32 75° E 23:11:12 10° NNE
Cosmos 2360 Rocket 2.8 23:01:49 10° NW 23:07:06 43° WSW 23:07:21 42° WSW
Cosmos 2315 Rocket 4.0 23:01:59 10° NNW 23:08:17 74° W 23:09:19 62° SSW
Cosmos 1452 Rocket 3.4 23:03:16 10° NNW 23:08:29 88° NNW 23:08:29 88° NNW
USA 229 DEB 4.1 23:02:00 10° NNW 23:09:18 64° NE 23:12:08 40° ESE
USA 229 4.2 23:02:06 10° NNW 23:09:24 64° NE 23:12:15 40° ESE
Spot 4 4.0 23:14:03 67° WNW 23:14:03 67° WNW 23:18:30 10° NNW
Sich 1 3.6 23:14:37 57° N 23:14:37 57° N 23:18:08 10° N
Cosmos 2333 Rocket 2.1 23:09:00 10° NNW 23:14:39 78° WSW 23:14:46 78° SW
Meteor 1-22 4.5 23:14:50 80° WSW 23:15:00 82° W 23:20:31 10° N
Cosmos 1633 Rocket 4.2 23:17:04 36° NE 23:17:04 36° NE 23:20:03 10° NNE
Cosmos 1666 Rocket 4.4 23:20:10 46° NE 23:20:10 46° NE 23:23:27 10° NNE
Cosmos 489 Rocket 4.3 23:20:59 72° SSW 23:21:43 88° ESE 23:28:07 10° NNE
Cosmos 2228 Rocket 4.0 23:17:49 10° NNW 23:21:21 43° WNW 23:21:21 43° WNW
USA 267 3.8 23:15:56 10° NE 23:22:18 57° NNW 23:28:40 10° WSW
Terra 4.3 23:22:24 11° W 23:23:11 12° W 23:24:49 10° WNW
Cosmos 2322 3.7 23:20:14 10° NNW 23:25:53 67° WSW 23:25:53 67° WSW
NOSS 3-1 (A) 4.1 23:22:13 10° NW 23:29:50 81° NE 23:32:41 47° SE
Cosmos 2297 Rocket 3.3 23:32:08 31° E 23:32:08 31° E 23:36:12 10° NE
Meteor 1-18 Rocket 4.3 23:26:16 10° N 23:32:08 70° ENE 23:32:22 69° E
Cosmos 1110 Rocket 4.0 23:30:30 10° NNW 23:35:37 79° NNE 23:35:37 79° NNE
Cosmos 2237 Rocket 3.0 23:32:31 10° NNW 23:37:54 42° ENE 23:38:58 38° E
Cosmos 2322 Rocket 4.3 23:35:24 10° WNW 23:37:56 13° W 23:38:16 13° W
Meteor 1-25 Rocket 4.3 23:38:17 61° W 23:38:38 62° WNW 23:44:11 10° N
Cosmos 1331 Rocket 4.0 23:36:58 10° NNW 23:41:53 77° N 23:41:53 77° N
Cosmos 2227 Rocket 3.4 23:43:37 29° E 23:43:37 29° E 23:47:37 10° NE
Cosmos 1745 Rocket 4.1 23:43:09 59° ESE 23:43:31 60° E 23:49:40 10° NNE
Cosmos 1862 Rocket 4.4 23:39:45 10° N 23:43:02 48° NNE 23:43:02 48° NNE
ALOS 2 3.7 23:50:25 39° NW 23:50:25 39° NW 23:53:35 10° NNW
COSMOS 2455 3.7 23:49:00 32° W 23:51:14 45° NW 23:57:00 10° NNE
